Regional Weather Roundup
Issued by NWS

Home | Current Version | Previous Version | Text Only | Print | Product List | Glossary Off
Versions: 1 2 3 4 5 6 7 8 9 10 11 12 13 14 15 16 17 18 19 20 21 22 23 24 25 26 27 28 29 30 31 32 33 34 35 36 37 38 39 40 41 42 43 44 45 46 47 48 49 50

730
ASUS45 KBOU 220910
RWRCO

WEATHER ROUNDUP FOR COLORADO
NATIONAL WEATHER SERVICE DENVER/BOULDER CO
300 AM MDT SUN APR 22 2018

NOTE: "FAIR" INDICATES FEW OR NO CLOUDS BELOW 12000 FEET WITH NO
SIGNIFICANT WEATHER AND/OR OBSTRUCTIONS TO VISIBILITY.

COZ001>005-013-030-031-221000-
...NORTHWEST COLORADO...

CITY           SKY/WX    TMP DP  RH WIND       PRES   REMARKS
CRAIG          FAIR      32  29  88 CALM      30.22S
HAYDEN         FAIR      36  32  85 E9        30.24S
MEEKER         FAIR      34  30  85 E3        30.24S
RANGELY        FAIR      39  35  87 E5        30.19S
RABBIT EARS PA FAIR     N/A N/A N/A W13G20    30.31S
STEAMBOAT SPGS FAIR      32  31  99 CALM      30.24S
WALDEN         FAIR      27  23  86 SE6       30.25S WCI  20
$$

COZ006>008-011-221000-
...WEST CENTRAL VALLEYS...

CITY           SKY/WX    TMP DP  RH WIND       PRES   REMARKS
GRAND JUNCTION FAIR      46  35  65 SE12      30.19R
MONTROSE       FAIR      38  30  73 S9        30.25S
EAGLE          FAIR      30  28  92 CALM      30.30R
RIFLE          FAIR      37  34  89 CALM      30.25R
DELTA          FAIR      42  34  73 NE8       30.23S
NUCLA          FAIR      39  28  65 E5        30.25S
$$

COZ017>023-064>068-221000-
...SOUTHWEST COLORADO...

CITY           SKY/WX    TMP DP  RH WIND       PRES   REMARKS
DURANGO        FAIR      35  16  45 NW5       30.18F WCI  31
CORTEZ         FAIR      35  23  61 E6        30.20F WCI  30
PAGOSA SPRINGS FAIR      32  18  56 CALM      30.23S
TELLURIDE      FAIR      32  24  73 CALM      30.31S
WOLF CREEK PAS FAIR      27  14  59 N14       30.39F WCI  15
$$

COZ009-010-012-014-032>034-037-058>063-221000-
...CENTRAL COLORADO...

CITY           SKY/WX    TMP DP  RH WIND       PRES   REMARKS
ASPEN          FAIR      28  25  88 CALM      30.27S
BUENA VISTA    FAIR      30  28  90 SW3       30.24S
COPPER MTN     NOT AVBL
BERTHOUD PASS  CLOUDY    23  12  63 NW29G45   30.32R WCI   6
COTTONWOOD PAS FAIR      39  27  60 NW8G17    30.27F
GUNNISON       FAIR      27  25  92 E5        30.30S WCI  22
GRANBY         FAIR      30  29  97 E3        30.28S
KREMMLING      FAIR      34  32  93 CALM      30.29R
LEADVILLE      FAIR      23  21  92 E5        30.29S WCI  17
MONARCH PASS     N/A     23  21  93 W16       30.43F WCI  10
SALIDA         NOT AVBL
SUNLIGHT       FAIR      28  27  93 W9        30.38S WCI  20
WILKERSON PASS MOCLDY    28  21  74 N15G23    30.30S WCI  17
$$

COZ069>075-221000-
...SAN LUIS VALLEY/SANGRE DE CRISTO MOUNTAINS...

CITY           SKY/WX    TMP DP  RH WIND       PRES   REMARKS
ALAMOSA        FAIR      30  21  69 W3        30.23S
DEL NORTE      FAIR      35  21  57 W13       30.24F WCI  26
LA VETA PASS   FAIR      30  23  74 S16       30.37F WCI  19
SAGUACHE       NOT AVBL
$$

COZ035-036-038>040-221000-
...NORTHERN COLORADO FRONT RANGE...

CITY           SKY/WX    TMP DP  RH WIND       PRES   REMARKS
DENVER INTL AP FAIR      33  30  88 E7        30.15R WCI  27
AURORA         PTCLDY    35  34  95 E3        30.15R
FRONT RANGE AP FAIR      34  32  94 E8        30.16S WCI  27
ERIE MUNI ARPT FAIR      32  31  98 CALM      30.21R FOG
BOULDER MUN AP FAIR      34  32  93 CALM      30.14S
CENTENNIAL     FAIR      34  31  88 SE7       30.14F WCI  28
BROOMFIELD     FAIR      34  32  93 NE5       30.14S WCI  30
FORT COLLINS   FAIR      32  30  93 NE6       30.16R FOG     WCI  26
LONGMONT       FAIR      32  29  92 CALM      30.17S
$$

COZ041-046-047-076>085-087-088-221000-
...PIKES PEAK/PALMER DIVIDE AND SOUTHERN FOOTHILLS...

CITY           SKY/WX    TMP DP  RH WIND       PRES   REMARKS
COLO. SPRINGS  CLOUDY    36  32  85 CALM      30.18F
A. F. ACADEMY  CLOUDY    35  33  91 CALM      30.17S
SCHRIEVER AFB  NOT AVBL
CHEYENNE MTN   FAIR      32  31  93 N3        30.11F
ELLICOTT       CLOUDY   N/A N/A N/A CALM      30.16F
FALCON         MOCLDY    32  31  97 W7        30.18F WCI  26
FORT CARSON    CLOUDY    37  35  92 CALM      30.16F
LIMON          CLOUDY    36  35  96 SE8       30.17F
MONUMENT HILL  FAIR      30  28  93 S7        30.18S WCI  23
CANON CITY     FAIR      34  32  93 W8        30.16F WCI  27
WALSENBURG     NOT AVBL
TRINIDAD       FAIR      34  33  96 S7        30.16F WCI  28
$$

COZ042>045-048>051-090-091-221000-
...NORTHEAST COLORADO...

CITY           SKY/WX    TMP DP  RH WIND       PRES   REMARKS
GREELEY ARPT   FAIR      32  31  96 E3        30.17S FOG
AKRON          FAIR      33  32  96 S8        30.15F WCI  26
BURLINGTON     MOCLDY    32  32 100 S7        30.19R FOG     WCI  26
WRAY           CLOUDY    36  36 100 CALM      30.20S FOG
YUMA           FAIR      28  28 100 CALM      30.18S FOG
STERLING       NOT AVBL
HOLYOKE        CLOUDY    37  36  93 CALM      30.20S FOG
FORT MORGAN    FAIR      33  32  93 S5        30.17S WCI  29
$$

COZ086-089-092>099-221000-
...SOUTHEAST COLORADO...

CITY           SKY/WX    TMP DP  RH WIND       PRES   REMARKS
PUEBLO         FAIR      35  33  92 NE7       30.18S WCI  29
LA JUNTA       CLOUDY    41  39  93 E6        30.19S
LAMAR          FAIR      34  32  92 CALM      30.19S
SPRINGFIELD      N/A     38  38 100 CALM      30.19S
$$




USA.gov is the U.S. government's official web portal to all federal, state and local government web resources and services.